Regional Weather Roundup
Issued by NWS

Home | Current Version | Previous Version | Graphics & Text | Print | Product List | Glossary On
Versions: 1 2 3 4 5 6 7 8 9 10 11 12 13 14 15 16 17 18 19 20 21 22 23 24 25 26 27 28 29 30 31 32 33 34 35 36 37 38 39 40 41 42 43 44 45 46 47 48 49 50
000
ASUS43 KLSX 242107
RWRMO

WEATHER SUMMARY FOR MISSOURI
NATIONAL WEATHER SERVICE SPRINGFIELD MO
300 PM CST WED DEC 24 2014

NOTE: "FAIR" INDICATES FEW OR NO CLOUDS BELOW 12,000 FEET WITH NO
       SIGNIFICANT WEATHER AND/OR OBSTRUCTIONS TO VISIBILITY.
       CURRENT SKY AND/OR WEATHER CONDITIONS ARE NOT AVAILABLE FOR
       CHILLICOTHE AND FARMINGTON.

MOZ001>031-035>038-043-044-053-054-242200-
...NORTHERN AND WESTERN MISSOURI...

CITY           SKY/WX    TMP DP  RH WIND       PRES   REMARKS
KANSAS CTY INT CLOUDY    36  30  79 NW12      29.80S WCI  28
KANSAS C DTWN  CLOUDY    39  30  70 W10G20    29.81S
LEE`S SUMMIT   CLOUDY    37  30  75 W12       29.81R WCI  29
ST JOSEPH      CLOUDY    36  30  79 W12       29.81S WCI  28
CHILLICOTHE      N/A     37  32  82 NW9       29.77S
KIRKSVILLE     MIX PCPN  36  33  89 W12G25    29.72R WCI  28

$$
MOZ066>068-077>081-088>096-101>105-242200-
...SOUTHWEST MISSOURI...

CITY           SKY/WX    TMP DP  RH WIND       PRES   REMARKS
SPRINGFIELD    CLOUDY    38  32  79 W12G18    29.80S
JOPLIN         CLOUDY    38  31  76 W14       29.86S WCI  30

$$
MOZ032>034-039>042-045>050-055>058-069>072-242200-
...CENTRAL MISSOURI...

CITY           SKY/WX    TMP DP  RH WIND       PRES   REMARKS
COLUMBIA       CLOUDY    38  33  82 NW12      29.73R
JEFFERSON CITY CLOUDY    39  32  76 W12G21    29.75R
ROLLA          CLOUDY    36  33  89 W9        29.72R WCI  29
SEDALIA        CLOUDY    38  34  85 W14G21    29.78R WCI  30
WHITEMAN AFB   CLOUDY    36  33  88 W9        29.79R WCI  29
WARRENSBURG    CLOUDY    36  32  87 W8        29.80R WCI  29
OSAGE BEACH    PTSUNNY   39  32  75 W9        29.77R

$$
MOZ051-052-059>065-242200-
...EAST CENTRAL MISSOURI...

CITY           SKY/WX    TMP DP  RH WIND       PRES   REMARKS
ST LOUIS INTL  LGT RAIN  39  34  82 W14       29.68R
SPIRIT OF STL  CLOUDY    38  35  89 W10       29.69R
ST CHARLES     CLOUDY    38  35  89 W13       29.68R WCI  30

$$
MOZ072>076-082>087-097>100-106>115-242200-
...SOUTH CENTRAL AND SOUTHEAST MISSOURI...

CITY           SKY/WX    TMP DP  RH WIND       PRES   REMARKS
CAPE GIRARDEAU CLOUDY    43  36  76 W15       29.72R
FARMINGTON     CLOUDY    37  34  87 W8        29.71R
POPLAR BLUFF   CLOUDY    42  34  73 NW14      29.75R
WEST PLAINS    CLOUDY    39  31  72 NW12G21   29.76R

$$


USA.gov is the U.S. government's official web portal to all federal, state and local government web resources and services.